Regional Weather Roundup
Issued by NWS Jackson, KY

Home | Current Version | Previous Version | Graphics & Text | Print | Product List | Glossary On
Versions: 1 2 3 4 5 6 7 8 9 10 11 12 13 14 15 16 17 18 19 20 21 22 23 24 25 26 27 28 29 30 31 32 33 34 35 36 37 38 39 40 41 42 43 44 45 46 47 48 49 50
000
ASUS43 KJKL 060310
RWRJKL

EAST KENTUCKY HOURLY WEATHER ROUNDUP
NATIONAL WEATHER SERVICE JACKSON KY
1100 PM EDT SUN JUL 05 2015

NOTE: "FAIR" INDICATES FEW OR NO CLOUDS BELOW 12,000 FEET WITH
NO SIGNIFICANT WEATHER AND/OR OBSTRUCTIONS TO VISIBILITY.

* THESE REPORTS ARE NOT UNDER NWS QUALITY CONTROL AND MAY NOT
  REPORT WEATHER SUCH AS PRECIPITATION AND FOG.

KYZ079-080-083-085-087-088-110-112-115-119-120-060400
...EASTERN KENTUCKY...

CITY           SKY/WX    TMP DP  RH WIND       PRES   REMARKS
JACKSON        LGT RAIN  69  68  96 CALM      30.10R FOG
LONDON         CLEAR     69  63  81 CALM      30.13R
SOMERSET*      PTCLDY    68  68 100 CALM      30.13R FOG
MONTICELLO*    PTCLDY    68  68 100 CALM      30.14R FOG
MIDDLESBORO*   MOCLDY    69  67  95 W3        30.12R
HARLAN APT*      N/A     68  68 100 W3        30.12R
HAZARD APT*    CLOUDY    70  70 100 W5        30.11R
BLACK MTN*       N/A     61  61 100 S1          N/A
PIKEVILLE APT* MOCLDY    68  68 100 CALM      30.09R FOG
BIG SANDY*     LGT RAIN  68  67  97 N3        30.09R
MOREHEAD APT*  CLOUDY    70  66  88 CALM      30.11R
$$

KYZ035-036-041-042-044-050-067-078-099-060400
...CENTRAL KENTUCKY...

CITY           SKY/WX    TMP DP  RH WIND       PRES   REMARKS
MT STERLING*   CLOUDY    68  68 100 W3        30.12R FOG
FLEMING/MASON* PTCLDY    70  64  83 NW3       30.10R
DANVILLE*      CLEAR     68  68 100 CALM      30.12R
RICHMOND*      PTCLDY    66  64  94 CALM      30.11R
LEXINGTON      PTCLDY    67  64  90 CALM      30.12R
FRANKFORT      PTCLDY    67  64  90 CALM      30.10R
$$

KYZ091>093-OHZ055-061-077-WVZ005-015-034-035-042-060400
...SOUTHERN OHIO/WEST VIRGINIA...

CITY           SKY/WX    TMP DP  RH WIND       PRES   REMARKS
COVINGTON      MOCLDY    68  61  78 CALM      30.09R
COLUMBUS       CLOUDY    70  63  78 CALM      30.08R
DAYTON         MOCLDY    68  62  81 E3        30.09F
WILMINGTON     MOCLDY    69  62  78 N3        30.09S
HUNTINGTON     HVY RAIN  68  68 100 VRB3      30.06R VSB 1
CHARLESTON     CLOUDY    68  66  93 SE3       30.07R
PINEVILLE*     CLOUDY    66  66 100 MISG      30.16R
BECKLEY        CLOUDY    65  61  87 SE8       30.14S
BLUEFIELD      CLOUDY    66  62  87 CALM      30.16S FOG
$$

VAZ002-007-008-TNZ017-027-036-066-071-060400
...SOUTHWEST VIRGINIA/EAST TENNESSEE...

CITY           SKY/WX    TMP DP  RH WIND       PRES   REMARKS
WISE*          MOCLDY    66  66 100 CALM      30.16R
JONESVILLE*      N/A    N/A N/A N/A MISG        N/A
ABINGDON*      DRIZZLE   69  69 100 CALM      30.14R
BRISTOL        MOCLDY    70  67  90 SW3       30.12R
KNOXVILLE      CLOUDY    71  66  84 W5        30.13R
OAK RIDGE      CLOUDY    72  69  90 CALM      30.14R
CROSSVILLE     PTCLDY    68  64  87 CALM      30.17R FOG
NASHVILLE      MOCLDY    75  72  90 VRB6      30.10R
$$

...KEY TO REMARKS...
VSB - VISIBILITY IN MILES
WCI - WIND CHILL INDEX
HX  - HEAT INDEX

$$



USA.gov is the U.S. government's official web portal to all federal, state and local government web resources and services.